Location: Poughquag
(41.6090°N, 73.6820°W)
Time: 21:10:34
(UTC-04:00)

Mayak - Visible Passes

Search period start: 26 May 2018 00:00
Search period end: 05 June 2018 00:00
Orbit: 585 x 603 km, 97.6° (Epoch: 26 May)

Date Brightness Start Highest point End Pass type
(mag) Time Alt. Az. Time Alt. Az. Time Alt. Az.
26 May -0.6 00:24:14 10° N 00:27:37 55° N 00:27:37 55° N visible
27 May -0.6 00:33:30 10° N 00:37:00 54° NNW 00:37:00 54° NNW visible
27 May 1.1 23:08:50 10° ENE 23:09:44 12° ENE 23:09:44 12° ENE visible
28 May -0.4 00:42:47 10° N 00:46:22 47° NW 00:46:22 47° NW visible
28 May 0.9 23:17:29 10° NE 23:19:06 16° ENE 23:19:06 16° ENE visible
29 May -0.1 00:52:07 10° N 00:55:44 39° WNW 00:55:44 39° WNW visible
29 May 0.7 23:26:20 10° NE 23:28:28 19° ENE 23:28:28 19° ENE visible
30 May 0.1 01:01:30 10° N 01:05:06 31° WNW 01:05:06 31° WNW visible
30 May 0.4 23:35:16 10° NE 23:37:50 24° ENE 23:37:50 24° ENE visible
31 May 0.4 01:10:55 10° NNW 01:14:25 25° WNW 01:14:27 25° WNW visible
31 May 0.1 23:44:18 10° NNE 23:47:11 30° ENE 23:47:11 30° ENE visible
01 Jun 0.7 01:20:24 10° NNW 01:23:33 21° WNW 01:23:49 20° WNW visible
01 Jun -0.3 23:53:22 10° NNE 23:56:32 38° ENE 23:56:32 38° ENE visible
02 Jun 0.9 01:29:58 10° NNW 01:32:40 17° WNW 01:33:10 16° WNW visible
03 Jun -0.6 00:02:30 10° NNE 00:05:54 48° ENE 00:05:54 48° ENE visible
03 Jun 1.2 01:39:43 10° NW 01:41:47 13° WNW 01:42:31 13° WNW visible
04 Jun -0.9 00:11:40 10° NNE 00:15:15 59° NE 00:15:15 59° NE visible
04 Jun 1.4 01:49:52 10° NW 01:50:53 11° WNW 01:51:52 10° WNW visible
